User: anonymous
Location: Mt. Chestnut Observatory
(40.9038°N, 79.9956°W)
Time: 17:24:02
(UTC-04:00)
Language:

Cosmos 2034 Rocket - Orbit

View from above orbital plane
View from above orbital plane
View from above satellite
View from above satellite

Ground track
Ground track

The orbit data is extracted from the following two-line orbital elements,

1 20150U 89059B   14113.83831696  .00000094  00000-0  81512-4 0  9537
2 20150 082.9418 227.4514 0027825 252.9202 227.7267 13.75567226242233
Epoch (UTC): 23 April 2014 20:07:10
Eccentricity: 0.0027825
inclination: 82.9418°
perigee height: 959 km
apogee height: 1000 km
right ascension of ascending node: 227.4514°
argument of perigee: 252.9202°
revolutions per day: 13.75567226
mean anomaly at epoch: 227.7267°
orbit number at epoch: 24223

The dashed part of the orbit path shows where the satellite is in the earth's shadow,  

DLR